Home   Weather   Siem Reap   Past weeks
Flag for Cambodia

Past Weather in Siem Reap, Cambodia — Yesterday and Last 2 Weeks

Now
97 °F

Scattered clouds.


Feels Like: 105 °F
Forecast: 100 / 80 °F
Wind: 6 mph from South

Location: Siemreap

Current Time: Apr 19, 2019 at 1:49:18 pm

Latest Report: Apr 19, 2019 at 1:00 pm


Visibility: N/A

Pressure: 29.68 "Hg

Humidity: 44%

Dew Point: 72 °F

Location of Siem ReapLocation

Past Weather in Siem Reap — Graph

°F

Siem Reap Temperature Yesterday

Maximum temperature yesterday: 100 °F (at 2:30 pm)
Minimum temperature yesterday: 81 °F (at 3:00 am)
Average temperature yesterday: 89 °F

High & Low Weather Summary for the Past Weeks

 TemperatureHumidityPressure
High100 °F (Apr 11, 1:30 pm)100% (Apr 5, 1:30 am)29.92 "Hg (Apr 5, 1:30 am)
Low75 °F (Apr 5, 4:30 am)31% (Apr 13, 2:00 pm)29.62 "Hg (Apr 11, 4:00 pm)
Average88 °F66%29.76 "Hg
* Reported Apr 4 12:00 pm — Apr 19 12:30 pm, Siem Reap. Weather by CustomWeather, © 2019

Note: Actual official high and low records may vary slightly from our data, if they occured in-between our weather recording intervals... More about our weather records

Advertising

Siem Reap Weather History for the Previous 24 Hours

Scroll right to see more
 ConditionsComfort  
Time TempWeatherWind HumidityBarometerVisibility
12:30 pm
Fri, Apr 19
97 °FExtremely hot.7 mph44%29.74 "HgN/A
12:00 pm97 °FExtremely hot.8 mph44%29.74 "HgN/A
11:30 am95 °FScattered clouds.6 mph50%29.77 "HgN/A
11:00 am95 °FScattered clouds.8 mph50%29.77 "HgN/A
10:30 am93 °FScattered clouds.7 mph56%29.77 "HgN/A
10:00 am91 °FScattered clouds.5 mph59%29.77 "HgN/A
9:30 am91 °FScattered clouds.8 mph59%29.77 "HgN/A
8:30 am88 °FScattered clouds.6 mph70%29.77 "Hg6 mi
8:00 am86 °FScattered clouds.7 mph75%29.74 "Hg6 mi
7:00 am84 °FScattered clouds.5 mph79%29.74 "Hg6 mi
6:30 am82 °FScattered clouds.5 mph84%29.71 "Hg6 mi
6:00 am82 °FScattered clouds.3 mph84%29.71 "Hg6 mi
5:30 am82 °FPassing clouds.2 mph84%29.71 "Hg6 mi
5:00 am82 °FPassing clouds.3 mph84%29.71 "Hg6 mi
4:30 am82 °FPassing clouds.2 mph84%29.71 "Hg6 mi
4:00 am82 °FPassing clouds.No wind84%29.71 "Hg6 mi
3:30 am82 °FPassing clouds.No wind84%29.68 "Hg6 mi
3:00 am82 °FPassing clouds.1 mph84%29.68 "Hg6 mi
2:30 am82 °FPassing clouds.1 mph84%29.68 "Hg6 mi
2:00 am82 °FPassing clouds.1 mph84%29.71 "Hg6 mi
1:30 am82 °FPassing clouds.1 mph84%29.71 "Hg6 mi
1:00 am82 °FPassing clouds.1 mph84%29.71 "Hg6 mi
12:30 am82 °FPassing clouds.1 mph79%29.71 "Hg6 mi
12:00 am82 °FPassing clouds.3 mph79%29.74 "HgN/A
11:30 pm
Thu, Apr 18
84 °FPassing clouds.3 mph74%29.74 "HgN/A
11:00 pm84 °FPassing clouds.3 mph74%29.77 "HgN/A
10:30 pm84 °FPassing clouds.5 mph74%29.77 "HgN/A
10:00 pm86 °FPassing clouds.6 mph70%29.77 "HgN/A
9:30 pm86 °FPassing clouds.7 mph70%29.74 "HgN/A
9:00 pm86 °FPassing clouds.5 mph66%29.74 "HgN/A
8:30 pm88 °FPassing clouds.7 mph62%29.71 "HgN/A
8:00 pm88 °FPassing clouds.6 mph62%29.71 "HgN/A
7:30 pm90 °FPassing clouds.8 mph59%29.68 "HgN/A
7:00 pm93 °FPassing clouds.5 mph53%29.68 "HgN/A
6:30 pm95 °FPassing clouds.5 mph50%29.68 "HgN/A
6:00 pm95 °FScattered clouds.6 mph50%29.65 "HgN/A
5:30 pm97 °FScattered clouds.6 mph44%29.65 "HgN/A
5:00 pm99 °FScattered clouds.7 mph37%29.65 "HgN/A
4:30 pm99 °FScattered clouds.7 mph37%29.62 "HgN/A
4:00 pm99 °FScattered clouds.7 mph37%29.62 "HgN/A
3:30 pm99 °FScattered clouds.2 mph37%29.65 "HgN/A
3:00 pm100 °FScattered clouds.6 mph35%29.65 "HgN/A
2:30 pm100 °FScattered clouds.6 mph35%29.65 "HgN/A
2:00 pm99 °FScattered clouds.3 mph37%29.68 "HgN/A
1:30 pm97 °FScattered clouds.6 mph42%29.71 "HgN/A
1:00 pm99 °FScattered clouds.5 mph39%29.74 "HgN/A
Weather by CustomWeather, © 2019

See weather overview